Weather Roundup
Issued by NWS Chicago, IL

Home | Current Version | Previous Version | Graphics & Text | Print | Product List | Glossary On
Versions: 1 2 3 4 5 6 7 8 9 10 11 12 13 14 15 16 17 18 19 20 21 22 23 24 25 26 27 28 29 30 31 32 33 34 35 36 37 38 39 40 41 42 43 44 45 46 47 48 49 50
000
NZUS59 KLOT 062110
HRRLOT

CHICAGO AREA WEATHER ROUNDUP
NATIONAL WEATHER SERVICE CHICAGO/ROMEOVILLE IL
300 PM CST FRI MAR 06 2015

NOTE: "FAIR" INDICATES FEW OR NO CLOUDS BELOW 12,000 FEET WITH NO
SIGNIFICANT WEATHER AND/OR OBSTRUCTIONS TO VISIBILITY.

* THESE STATIONS ARE NOT UNDER NWS QUALITY CONTROL. THEY ALSO MAY NOT
  REPORT WEATHER SUCH AS PRECIPITATION OR FOG.

ILZ005-006-012>014-019>023-062200-
NORTHEAST ILLINOIS

CITY           SKY/WX    TMP DP  RH WIND       PRES   REMARKS
OHARE          MOSUNNY   27  12  53 SW18G26   30.21S WCI  14
MIDWAY         MOSUNNY   27  13  55 SW20G30   30.24S WCI  13
AURORA         SUNNY     25  15  66 S16       30.23S WCI  12
LANSING*       SUNNY     25  13  61 S16       30.26S WCI  12
JOLIET*        SUNNY     25  14  62 SW14G21   30.26F WCI  14
WAUKEGAN       PTSUNNY   27  13  55 S24G33    30.17F WCI  12
DUPAGE AIRPORT SUNNY     25  14  63 S17G31    30.21F WCI  12
WHEELING       SUNNY     29  11  47 SW17G28   30.22F WCI  17
KANKAKEE*      SUNNY     25  16  69 S22       30.28F WCI  10
MORRIS*        SUNNY     25  18  74 S20       30.25F WCI  11
LEWIS AIRPORT* SUNNY     25  15  65 S22       30.24F WCI  10
NORTHERLY IS     N/A     26  10  50 S18         N/A  WCI  13
$$

WIZ051-052-058>065-066-070>072-062200-
SOUTHEAST WISCONSIN

CITY           SKY/WX    TMP DP  RH WIND       PRES   REMARKS
MILWAUKEE      PTSUNNY   26  11  52 SW25G31   30.14F WCI  11
KENOSHA*       CLOUDY    27  13  55 SW22G35   30.16F WCI  13
RACINE*        CLOUDY    28  12  51 SW18G29   30.16F WCI  15
BURLINGTON     SUNNY     25  13  60 SW18G28   30.15F WCI  12
WAUKESHA       MOSUNNY   25  10  54 SW18G24   30.13F WCI  11
WEST BEND      CLOUDY    27  12  54 SW18G25   30.09F WCI  13
$$

INZ001>003-010>013-019-020-062200-
NORTHWEST INDIANA

CITY           SKY/WX    TMP DP  RH WIND       PRES   REMARKS
GARY*          MOSUNNY   27   5  39 S12G29    30.25F WCI  16
MICHIGAN CITY* NOT AVBL
RENSSELAER*    NOT AVBL
VALPARAISO     MOSUNNY   23  11  60 S16G23    30.25F WCI  10
$$

LMZ740>746-062200-
SOUTHERN LAKE MICHIGAN

STATION/POSITION TIME  SKY/WX   TEMP WIND        PRES    VSBY
                                AIR  DIR/SP/G
                 (UTC)          (F)  (DEG/KT/KT) (MB)    (MI)
HARRISON CRIB    2100            24  200/ 24/ 30   N/A
BURNHAM HARBOR   2100            25  190/ 17/ 22   N/A
CALUMET HARBOR   2100            25  180/ 12/ 16 1022.6S
BURNS HARBOR     NOT AVBL
MICHIGAN CITY    2100            23  160/ 14/ 20   N/A
$$

ABBREVIATIONS USED IN REMARKS
   TC - TEMPERATURE IN CELSIUS
  WCI - WIND CHILL INDEX
   HX - HEAT INDEX
  VSB - VISIBILITY
$$


USA.gov is the U.S. government's official web portal to all federal, state and local government web resources and services.